Preview of NWS' New Version of Forecast
This preview is not operational and should not be used for support decisions.

Regional Weather Roundup (RWR)

Issued by National Weather Service (NWS)

                            
000
ASUS43 KMKX 260121
RWRWI 

WISCONSIN REGIONAL WEATHER ROUNDUP
NATIONAL WEATHER SERVICE MILWAUKEE/SULLIVAN WI
800 PM CDT SUN AUG 25 2019

NOTE: "FAIR" INDICATES FEW OR NO CLOUDS BELOW 12,000 FEET WITH NO
SIGNIFICANT WEATHER AND/OR OBSTRUCTIONS TO VISIBILITY.

WIZ001-002-006>008-014>016-023>028-260200-
NORTHWEST WISCONSIN
  
CITY           SKY/WX    TMP DP  RH WIND       PRES   REMARKS
SUPERIOR ARPT  MOCLDY    65  55  69 CALM      29.94S                  
ASHLAND        FAIR      67  54  63 S5        29.98S                  
HAYWARD        FAIR      64  53  67 SE6       29.98F                  
SIREN          LGT RAIN  63  60  90 CALM      29.96S                  
CUMBERLAND     CLOUDY    63  54  72 SE6       29.97S                  
RICE LAKE      NOT AVBL                                               
CHETEK         CLOUDY    65  56  71 SE7       29.97F                  
LADYSMITH      FAIR      63  55  75 E5        30.00F                  
EAU CLAIRE     FAIR      66  56  70 SE6       29.96F                  
MENOMONIE      FAIR      62  55  77 E6        29.96S                  
NEW RICHMOND   CLOUDY    66  55  68 SE7       29.94F                  
OSCEOLA        LGT RAIN  64  62  95 SE7       29.96S                  
$$
 
WIZ003>005-009-010-017-018-260200-
NORTH CENTRAL WISCONSIN
  
CITY           SKY/WX    TMP DP  RH WIND       PRES   REMARKS
MANITOWISH WTR FAIR      62  55  78 SE7       30.02F                  
ARBOR VITAE    FAIR      64  56  73 SE6       30.03S                  
WOODRUFF       FAIR      64  56  73 SE6       30.03S                  
RHINELANDER    FAIR      63  54  72 SE7       30.05S                  
EAGLE RIVER    FAIR      63  53  69 SE5       30.05S                  
LAND O LAKES   FAIR      62  54  73 SE6       30.07S                  
PHILLIPS       FAIR      61  56  83 CALM      30.01S                  
TOMAHAWK       FAIR      61  54  79 CALM      30.03F                  
MEDFORD        CLOUDY    62  55  80 E3        30.01F                  
MERRILL        FAIR      64  56  75 SE6       30.03F                  
$$
 
WIZ029-030-035-036-043>047-260200-
CENTRAL WISCONSIN
  
CITY           SKY/WX    TMP DP  RH WIND       PRES   REMARKS
WAUSAU         CLOUDY    66  54  65 SE8       30.01F                  
MOSINEE        MOCLDY    64  57  77 E5        30.03F                  
MARSHFIELD     FAIR      66  57  72 E8        29.99F                  
STEVENS POINT  CLOUDY    65  55  67 SE6       30.03S                  
WAUPACA        FAIR      66  56  70 CALM      30.03S                  
WAUTOMA        FAIR      66  57  72 E6        30.02S                  
WISC RAPIDS    MOCLDY    68  58  70 SE8       30.01S                  
CAMP DOUGLAS   FAIR      66  62  87 SE6       29.99F                  
$$
 
WIZ011>013-019>022-031-037>040-048>050-260200-
NORTHEAST WISCONSIN
  
CITY           SKY/WX    TMP DP  RH WIND       PRES   REMARKS
ANTIGO         CLOUDY    61  55  80 SE9       30.06S                  
SHAWANO        FAIR      64  56  75 SE3       30.04S                  
OCONTO         MOCLDY    65  57  77 CALM      30.04F                  
STURGEON BAY   MOCLDY    65  58  78 E3        30.06F                  
GREEN BAY      FAIR      67  56  67 MISG      30.04F                  
MANITOWOC      FAIR      65  60  84 E5        30.05F                  
APPLETON       MOCLDY    66  54  63 SE9       30.04                   
CLINTONVILLE   FAIR      64  55  72 CALM      30.03S                  
OSHKOSH        FAIR      66  56  70 SE7       30.02F                  
$$
 
WIZ032>034-041-042-053>061-260200-
SOUTHWEST WISCONSIN
  
CITY           SKY/WX    TMP DP  RH WIND       PRES   REMARKS
LA CROSSE      MOCLDY    71  56  58 SE10      29.95F                  
SPARTA         FAIR      64  60  86 SE3       29.98F                  
VIROQUA        FAIR      63  58  85 SE6       29.98F                  
BOSCOBEL       CLOUDY    67  59  75 CALM      29.97F                  
PRAIRIE DU CHI CLOUDY    67  57  70 CALM      29.96F                  
PLATTEVILLE    CLOUDY    66  63  90 E5        29.98S                  
$$

WIZ056-057-062-063-064-067-068-260200-
SOUTH CENTRAL WISCONSIN
  
CITY           SKY/WX    TMP DP  RH WIND       PRES   REMARKS
REEDSBURG      MOCLDY    64  64 100 N3        29.99S                  
BARABOO/DELLS  MOCLDY    64  56  75 SE6       29.99F                  
LONE ROCK      CLOUDY    63  60  90 E3        29.98F                  
MINERAL POINT  FAIR      64  64 100 E5        29.98F                  
MADISON        LGT RAIN  66  56  70 SE8       29.99F                  
MIDDLETON      CLOUDY    69  53  58 SE9       30.00S                  
WATERTOWN      FAIR      65  56  72 E5        30.01F                  
MONROE         DRIZZLE   64  56  77 NE6       29.98F                  
JANESVILLE     CLOUDY    70  57  64 E7        30.00S                  
$$
 
WIZ051-052-058>065-066-070>072-260200-
SOUTHEAST WISCONSIN
  
CITY           SKY/WX    TMP DP  RH WIND       PRES   REMARKS
MILWAUKEE      MOCLDY    70  57  63 E7        30.02S                  
WAUKESHA       PTCLDY    64  54  68 E5        30.04R                  
MILWAUKEE/TIMM CLEAR     70  52  52 E5        30.04S                  
RACINE         FAIR      71  58  63 E9        30.03F                  
KENOSHA        FAIR      70  60  70 E7        30.01F                  
FOND DU LAC    FAIR      69  56  62 SE5       30.03F                  
SHEBOYGAN      FAIR      66  58  75 E3        30.04F                  
WEST BEND      FAIR      63  59  88 CALM      30.03F                  
JUNEAU         FAIR      65  57  77 E5        30.03F                  
$$

LSZ147-162-260200-
LAKE SUPERIOR
  
STATION/POSITION TIME  TEMP    WIND        PRES    WAVE
                       AIR SEA DIR/SP/G            HT/PER
                 (UTC) (F)     (DEG/KT/KT) (MB)    (FT/S)
W MID LAKE BUOY  0050   65 64   80/  8/  8 1014.7F   1
DEVILS ISLAND    0100   66     110/  7/  8 1014.7F
SAXON HARBOR     0040   69      CALM  /  2 1014.9R
$$
 
LMZ867-665-643>646-260200-
LAKE MICHIGAN
  
STATION/POSITION TIME  TEMP    WIND        PRES    WAVE
                       AIR SEA DIR/SP/G            HT/PER
                 (UTC) (F)     (DEG/KT/KT) (MB)    (FT/S)
S GREEN BAY BUOY 0100   74 70  120/ 10/ 12 1017.5
N MID LAKE BUOY  0100   70 70   90/ 12/ 14 1017.8
NORTHPORT PIER   0040   67      10/  1/  2 1017.6S
KEWAUNEE LAKESHO 0048   67     100/  6/  8 1017.1F
SHEBOYGAN LAKESH 0100   69     110/  7/  7 1017.1F
PORT WASHINGTON  0040   71     100/  7/  9 1017.6F
ATWATER BUOY     0100   70 69  110/  8/ 12 1016.9    3/ 4
S MID LAKE BUOY  0100   72 72  130/ 14/ 17 1016.8
KENOSHA   LAKESH 0100   73     120/ 16/ 20 1015.6
$$

TC  - TEMPERATURE IN CELSIUS
VSB - VISIBILITY IN STATUTE MILES
WCI - WIND CHILL INDEX
HX  - HEAT INDEX